Regional Weather Roundup
Issued by NWS Bismarck, ND

Home | Current Version | Previous Version | Text Only | Print | Product List | Glossary On
Versions: 1 2 3 4 5 6 7 8 9 10 11 12 13 14 15 16 17 18 19 20 21 22 23 24 25 26 27 28 29 30 31 32 33 34 35 36 37 38 39 40 41 42 43 44 45 46 47 48 49 50
000
ASUS43 KBIS 240910
RWRBIS

NWR BROADCAST TEXT
NATIONAL WEATHER SERVICE BISMARCK ND
400 AM CDT MON JUL 24 2017

NOTE: "FAIR" INDICATES FEW OR NO CLOUDS BELOW 12,000 FEET WITH NO
SIGNIFICANT WEATHER AND/OR OBSTRUCTIONS TO VISIBILITY.


CITY           SKY/WX    TMP DP  RH WIND       PRES   REMARKS
WILLISTON      CLEAR     75  55  49 S12G20    29.81F
MINOT          CLEAR     69  56  62 SE8       29.85F
MINOT AFB      CLEAR     66  56  71 S9        29.84F
BISMARCK       PTCLDY    66  61  84 S10       29.94F
DICKINSON      CLOUDY    67  54  63 S18       29.90S
GARRISON         N/A     64  58  80 S9        29.89F
HETTINGER ARPT CLOUDY    68  53  58 S14       29.96S
JAMESTOWN      CLEAR     60  58  92 S7        29.97S
HAZEN          FAIR      68  55  64 S21       29.90S
LINTON         FAIR     N/A N/A N/A S15       29.99R
MANDAN         FAIR      64  61  88 S13       29.95F
STANLEY        PTSUNNY   66  57  72 S10       29.89S
WATFORD CITY   FAIR      73  54  49 S16G26    29.83F
$$

CITY           SKY/WX    TMP DP  RH WIND       PRES   REMARKS
GRAND FORKS    CLEAR     61  61 100 S6        29.95F
GRAND FORKS AF CLEAR     59  59  99 S7        29.95F
DEVILS LAKE    CLEAR     66  61  84 S13       29.93F
FARGO          NOT AVBL
CAVALIER       FAIR      63  61  94 S7        29.92R
GRAFTON        FAIR      59  59 100 S10       29.93F
GWINNER        SUNNY     55  55 100 SW3       29.99S
LANGDON        FAIR      63  63 100 S9        29.94R
ROLLA            N/A     59  59 100 S9        29.91F
$$

CITY           SKY/WX    TMP DP  RH WIND       PRES   REMARKS
ABERDEEN       CLEAR     59  58  96 S6        30.00R
MOBRIDGE       CLOUDY    68  61  78 S13       29.95F
BUFFALO          N/A     78  51  38 SW46G54   29.87F
RAPID CITY     MOCLDY    71  51  49 N8        29.97R
GLASGOW        CLEAR     73  46  38 SE13      29.68F
SIDNEY         CLEAR     71  55  56 S8        29.79F
WOLF POINT     CLEAR     78  48  34 VRB5      29.72S
GLENDIVE       CLEAR     75  51  43 S13       29.80F
MILES CITY     CLEAR     77  44  30 SE6       29.77F
BAKER          CLOUDY    73  48  41 SE17G30   29.85F
$$

CITY           SKY/WX    TMP DP  RH WIND       PRES   REMARKS
BILLINGS       CLEAR     75  37  25 SW15      29.82F
GREAT FALLS    PTCLDY    69  40  34 SW13      29.83R
REGINA         CLEAR     64  55  72 SE17      29.68F
ESTEVAN        PTCLDY    68  55  64 SE9       29.78F
$$





USA.gov is the U.S. government's official web portal to all federal, state and local government web resources and services.